START_TIME,STEP,MOV.,M34,t_acc.,L5,t_acc.,L18,t_acc.,L14,t_acc.
1979-07-23 06:00:24.270 ,0,1,0.,12.0,0.,12.0,0.,12.0,0.,12.0
1979-07-23 06:00:36.270 ,0,1,0.,12.0,0.,12.0,0.,12.0,0.,12.0
1979-07-23 06:00:48.270 ,3,1,0.,12.0,0.,12.0,0.,12.0,0.,12.0
1979-07-23 06:01:00.270 ,3,1,0.,12.0,0.,12.0,0.,12.0,0.,12.0
1979-07-23 06:01:12.270 ,7,1,0.,12.0,0.,12.0,0.,12.0,0.,12.0
1979-07-23 06:01:24.270 ,7,1,0.,12.0,0.,12.0,0.,12.0,0.,12.0
1979-07-23 06:01:36.270 ,4,1,0.,12.0,0.,12.0,0.,12.0,0.,12.0
1979-07-23 06:01:48.270 ,4,1,0.,12.0,0.,12.0,0.,12.0,0.,12.0
1979-07-23 06:02:00.270 ,0,1,0.,12.0,0.,12.0,0.,12.0,0.,12.0
1979-07-23 06:02:12.270 ,0,1,0.,12.0,0.,12.0,0.,12.0,0.,12.0
1979-07-23 06:02:24.270 ,3,1,0.,12.0,0.,12.0,0.,12.0,0.,12.0
1979-07-23 06:02:36.270 ,3,1,0.,12.0,0.,12.0,0.,12.0,0.,12.0
1979-07-23 06:02:48.270 ,7,1,0.,12.0,0.,12.0,0.,12.0,0.,12.0
1979-07-23 06:03:00.270 ,7,1,0.,12.0,0.,12.0,0.,12.0,0.,12.0
1979-07-23 06:03:12.270 ,4,1,0.,12.0,0.,12.0,0.,12.0,0.,12.0
1979-07-23 06:03:24.270 ,4,1,0.,12.0,0.,12.0,0.,12.0,0.,12.0
1979-07-23 06:03:36.270 ,0,1,0.,12.0,0.,12.0,0.,12.0,0.,12.0
1979-07-23 06:03:48.270 ,0,1,0.,12.0,0.,12.0,0.,12.0,0.,12.0
1979-07-23 06:04:00.270 ,3,1,0.,12.0,0.,12.0,0.,12.0,0.,12.0
1979-07-23 06:04:12.270 ,3,1,1.,12.0,0.,12.0,0.,12.0,0.,12.0
1979-07-23 06:04:24.270 ,7,1,0.,12.0,0.,12.0,0.,12.0,0.,12.0
1979-07-23 06:04:36.270 ,7,1,0.,12.0,0.,12.0,0.,12.0,0.,12.0
1979-07-23 06:04:48.270 ,4,1,0.,12.0,0.,12.0,0.,12.0,0.,12.0
1979-07-23 06:05:00.270 ,4,1,0.,12.0,0.,12.0,0.,12.0,0.,12.0
1979-07-23 06:05:12.270 ,0,1,0.,12.0,0.,12.0,0.,12.0,0.,12.0
1979-07-23 06:05:24.270 ,0,1,0.,12.0,0.,12.0,0.,12.0,0.,12.0
1979-07-23 06:05:36.270 ,0,0,0.,12.0,0.,12.0,0.,12.0,0.,12.0
1979-07-23 06:05:48.270 ,0,0,0.,12.0,0.,12.0,0.,12.0,0.,12.0
1979-07-23 06:06:00.270 ,0,0,0.,12.0,0.,12.0,0.,12.0,0.,12.0
1979-07-23 06:06:12.270 ,0,0,0.,12.0,0.,12.0,0.,12.0,0.,12.0
1979-07-23 06:06:24.270 ,5,1,0.,12.0,0.,12.0,0.,12.0,0.,12.0
1979-07-23 06:06:36.270 ,5,1,0.,12.0,0.,12.0,0.,12.0,0.,12.0
1979-07-23 06:06:48.270 ,5,0,0.,12.0,0.,12.0,0.,12.0,0.,12.0
1979-07-23 06:07:00.270 ,5,0,0.,12.0,0.,12.0,0.,12.0,0.,12.0
1979-07-23 06:07:12.270 ,4,1,0.,12.0,0.,12.0,0.,12.0,0.,12.0
1979-07-23 06:07:24.270 ,4,1,0.,12.0,0.,12.0,0.,12.0,0.,12.0
1979-07-23 06:07:36.270 ,4,0,0.,12.0,0.,12.0,0.,12.0,0.,12.0
1979-07-23 06:07:48.270 ,4,0,0.,12.0,0.,12.0,0.,12.0,0.,12.0
1979-07-23 06:08:00.270 ,3,1,0.,12.0,0.,12.0,0.,12.0,0.,12.0
1979-07-23 06:08:12.270 ,3,1,0.,12.0,0.,12.0,0.,12.0,0.,12.0
1979-07-23 06:08:24.270 ,3,0,0.,12.0,0.,12.0,0.,12.0,0.,12.0
1979-07-23 06:08:36.270 ,3,0,0.,12.0,0.,12.0,0.,12.0,0.,12.0
1979-07-23 06:08:48.270 ,2,1,0.,12.0,0.,12.0,0.,12.0,0.,12.0
1979-07-23 06:09:00.270 ,2,1,0.,12.0,0.,12.0,0.,12.0,0.,12.0
1979-07-23 06:09:12.270 ,2,0,0.,12.0,0.,12.0,0.,12.0,0.,12.0
1979-07-23 06:09:24.270 ,2,0,0.,12.0,0.,12.0,0.,12.0,0.,12.0
1979-07-23 06:09:36.270 ,1,1,0.,12.0,0.,12.0,0.,12.0,0.,12.0
1979-07-23 06:09:48.270 ,1,1,0.,12.0,0.,12.0,0.,12.0,0.,12.0
1979-07-23 06:10:00.270 ,1,0,0.,12.0,0.,12.0,0.,12.0,0.,12.0
1979-07-23 06:10:12.270 ,1,0,0.,12.0,0.,12.0,0.,12.0,0.,12.0
1979-07-23 06:10:24.270 ,0,1,0.,12.0,0.,12.0,0.,12.0,0.,12.0
1979-07-23 06:10:36.270 ,0,1,0.,12.0,0.,12.0,0.,12.0,0.,12.0
1979-07-23 06:10:48.270 ,0,0,0.,12.0,0.,12.0,0.,12.0,0.,12.0
1979-07-23 06:11:00.270 ,0,0,0.,12.0,0.,12.0,0.,12.0,0.,12.0
1979-07-23 06:11:12.270 ,0,1,0.,12.0,0.,12.0,0.,12.0,0.,12.0
1979-07-23 06:11:24.270 ,0,1,0.,12.0,0.,12.0,0.,12.0,0.,12.0
1979-07-23 06:11:36.270 ,0,0,0.,12.0,0.,12.0,0.,12.0,0.,12.0
1979-07-23 06:11:48.270 ,0,0,0.,12.0,0.,12.0,0.,12.0,0.,12.0
1979-07-23 06:12:00.270 ,1,1,0.,12.0,0.,12.0,0.,12.0,0.,12.0
1979-07-23 06:12:12.270 ,1,1,0.,12.0,0.,12.0,0.,12.0,0.,12.0
1979-07-23 06:12:24.270 ,1,0,0.,12.0,0.,12.0,0.,12.0,0.,12.0
1979-07-23 06:12:36.270 ,1,0,0.,12.0,0.,12.0,0.,12.0,0.,12.0
1979-07-23 06:12:48.270 ,2,1,0.,12.0,0.,12.0,0.,12.0,0.,12.0
1979-07-23 06:13:00.270 ,2,1,0.,12.0,0.,12.0,0.,12.0,0.,12.0
1979-07-23 06:13:12.270 ,2,0,0.,12.0,0.,12.0,0.,12.0,0.,12.0
1979-07-23 06:13:24.270 ,2,0,0.,12.0,0.,12.0,0.,12.0,0.,12.0
1979-07-23 06:13:36.270 ,3,1,0.,12.0,0.,12.0,0.,12.0,0.,12.0
1979-07-23 06:13:48.270 ,3,1,0.,12.0,0.,12.0,0.,12.0,0.,12.0
1979-07-23 06:14:00.270 ,3,0,0.,12.0,0.,12.0,0.,12.0,0.,12.0
1979-07-23 06:14:12.270 ,3,0,0.,12.0,0.,12.0,0.,12.0,0.,12.0
1979-07-23 06:14:24.270 ,4,1,0.,12.0,0.,12.0,0.,12.0,0.,12.0
1979-07-23 06:14:36.270 ,4,1,0.,12.0,0.,12.0,0.,12.0,0.,12.0
1979-07-23 06:14:48.270 ,4,0,0.,12.0,0.,12.0,0.,12.0,0.,12.0
1979-07-23 06:15:00.270 ,4,0,0.,12.0,0.,12.0,0.,12.0,0.,12.0
1979-07-23 06:15:12.270 ,5,1,0.,12.0,0.,12.0,0.,12.0,0.,12.0
1979-07-23 06:15:24.270 ,5,1,0.,12.0,0.,12.0,0.,12.0,0.,12.0
1979-07-23 06:15:36.270 ,5,0,0.,12.0,0.,12.0,0.,12.0,0.,12.0
1979-07-23 06:15:48.270 ,5,0,0.,12.0,0.,12.0,0.,12.0,0.,12.0
1979-07-23 06:16:00.270 ,6,1,0.,12.0,0.,12.0,0.,12.0,0.,12.0
1979-07-23 06:16:12.270 ,6,1,0.,12.0,0.,12.0,0.,12.0,0.,12.0
1979-07-23 06:16:24.270 ,6,0,0.,12.0,0.,12.0,0.,12.0,0.,12.0
1979-07-23 06:16:36.270 ,6,0,0.,12.0,0.,12.0,0.,12.0,0.,12.0
1979-07-23 06:16:48.270 ,7,1,0.,12.0,0.,12.0,0.,12.0,0.,12.0
1979-07-23 06:17:00.270 ,7,1,0.,12.0,0.,12.0,0.,12.0,0.,12.0
1979-07-23 06:17:12.270 ,7,0,0.,12.0,0.,12.0,0.,12.0,0.,12.0
1979-07-23 06:17:24.270 ,7,0,0.,12.0,0.,12.0,0.,12.0,0.,12.0
1979-07-23 06:17:36.270 ,7,1,0.,12.0,0.,12.0,0.,12.0,0.,12.0
1979-07-23 06:17:48.270 ,7,1,0.,12.0,0.,12.0,0.,12.0,0.,12.0
1979-07-23 06:18:00.270 ,7,0,0.,12.0,0.,12.0,0.,12.0,0.,12.0
1979-07-23 06:18:12.270 ,7,0,0.,12.0,0.,12.0,0.,12.0,0.,12.0
1979-07-23 06:18:24.270 ,6,1,0.,12.0,0.,12.0,0.,12.0,0.,12.0
1979-07-23 06:18:36.270 ,6,1,0.,12.0,0.,12.0,0.,12.0,0.,12.0
1979-07-23 06:18:48.270 ,6,0,0.,12.0,0.,12.0,0.,12.0,0.,12.0
1979-07-23 06:19:00.270 ,6,0,0.,12.0,0.,12.0,0.,12.0,0.,12.0
1979-07-23 06:19:12.270 ,5,1,0.,12.0,0.,12.0,0.,12.0,0.,12.0
1979-07-23 06:19:24.270 ,5,1,0.,12.0,0.,12.0,0.,12.0,0.,12.0
1979-07-23 06:19:36.270 ,5,0,0.,12.0,0.,12.0,0.,12.0,0.,12.0
1979-07-23 06:19:48.270 ,5,0,0.,12.0,0.,12.0,0.,12.0,0.,12.0
1979-07-23 06:20:00.270 ,4,1,0.,12.0,0.,12.0,0.,12.0,0.,12.0
1979-07-23 06:20:12.270 ,4,1,0.,12.0,0.,12.0,0.,12.0,0.,12.0
1979-07-23 06:20:24.270 ,4,0,0.,12.0,0.,12.0,0.,12.0,0.,12.0
1979-07-23 06:20:36.270 ,4,0,0.,12.0,0.,12.0,0.,12.0,0.,12.0
1979-07-23 06:20:48.270 ,3,1,0.,12.0,0.,12.0,0.,12.0,0.,12.0
1979-07-23 06:21:00.270 ,3,1,0.,12.0,0.,12.0,0.,12.0,0.,12.0
1979-07-23 06:21:12.270 ,3,0,0.,12.0,0.,12.0,0.,12.0,0.,12.0
1979-07-23 06:21:24.270 ,3,0,0.,12.0,0.,12.0,0.,12.0,0.,12.0
1979-07-23 06:21:36.270 ,2,1,0.,12.0,0.,12.0,0.,12.0,0.,12.0
1979-07-23 06:21:48.270 ,2,1,0.,12.0,0.,12.0,0.,12.0,0.,12.0
1979-07-23 06:22:00.270 ,2,0,0.,12.0,0.,12.0,0.,12.0,0.,12.0
1979-07-23 06:22:12.270 ,2,0,0.,12.0,0.,12.0,0.,12.0,0.,12.0
1979-07-23 06:22:24.270 ,1,1,0.,12.0,0.,12.0,0.,12.0,0.,12.0
1979-07-23 06:22:36.270 ,1,1,0.,12.0,0.,12.0,0.,12.0,0.,12.0
1979-07-23 06:22:48.270 ,1,0,0.,12.0,0.,12.0,0.,12.0,0.,12.0
1979-07-23 06:23:00.270 ,1,0,0.,12.0,0.,12.0,0.,12.0,0.,12.0
1979-07-23 06:23:12.270 ,0,1,0.,12.0,0.,12.0,0.,12.0,0.,12.0
1979-07-23 06:23:24.270 ,0,1,0.,12.0,0.,12.0,0.,12.0,0.,12.0
1979-07-23 06:23:36.270 ,0,0,0.,12.0,0.,12.0,0.,12.0,0.,12.0
1979-07-23 06:23:48.270 ,0,0,0.,12.0,0.,12.0,0.,12.0,0.,12.0
1979-07-23 06:24:00.270 ,0,1,0.,12.0,0.,12.0,0.,12.0,0.,12.0
1979-07-23 06:24:12.270 ,0,1,1.,12.0,0.,12.0,0.,12.0,0.,12.0
1979-07-23 06:24:24.270 ,0,0,0.,12.0,0.,12.0,0.,12.0,0.,12.0
1979-07-23 06:24:36.270 ,0,0,0.,12.0,0.,12.0,0.,12.0,1.,12.0
1979-07-23 06:24:48.270 ,1,1,0.,12.0,0.,12.0,0.,12.0,0.,12.0
1979-07-23 06:25:00.270 ,1,1,0.,12.0,0.,12.0,0.,12.0,0.,12.0
1979-07-23 06:25:12.270 ,1,0,0.,12.0,0.,12.0,0.,12.0,0.,12.0
1979-07-23 06:25:24.270 ,1,0,0.,12.0,0.,12.0,0.,12.0,0.,12.0
1979-07-23 06:25:36.270 ,2,1,0.,12.0,0.,12.0,0.,12.0,0.,12.0
1979-07-23 06:25:48.270 ,2,1,0.,12.0,0.,12.0,0.,12.0,0.,12.0
1979-07-23 06:26:00.270 ,2,0,0.,12.0,0.,12.0,0.,12.0,0.,12.0
1979-07-23 06:26:12.270 ,2,0,0.,12.0,0.,12.0,0.,12.0,0.,12.0
1979-07-23 06:26:24.270 ,3,1,0.,12.0,0.,12.0,0.,12.0,0.,12.0
1979-07-23 06:26:36.270 ,3,1,0.,12.0,0.,12.0,0.,12.0,0.,12.0
1979-07-23 06:26:48.270 ,3,0,0.,12.0,0.,12.0,0.,12.0,0.,12.0
1979-07-23 06:27:00.270 ,3,0,0.,12.0,0.,12.0,0.,12.0,0.,12.0
1979-07-23 06:27:12.270 ,4,1,0.,12.0,0.,12.0,0.,12.0,0.,12.0
1979-07-23 06:27:24.270 ,4,1,0.,12.0,0.,12.0,0.,12.0,0.,12.0
1979-07-23 06:27:36.270 ,4,0,0.,12.0,0.,12.0,0.,12.0,0.,12.0
1979-07-23 06:27:48.270 ,4,0,0.,12.0,0.,12.0,0.,12.0,0.,12.0
1979-07-23 06:28:00.270 ,5,1,0.,12.0,0.,12.0,0.,12.0,0.,12.0
1979-07-23 06:28:12.270 ,5,1,0.,12.0,0.,12.0,0.,12.0,0.,12.0
1979-07-23 06:28:24.270 ,5,0,0.,12.0,0.,12.0,0.,12.0,0.,12.0
1979-07-23 06:28:36.270 ,5,0,0.,12.0,0.,12.0,0.,12.0,0.,12.0
1979-07-23 06:28:48.270 ,6,1,0.,12.0,0.,12.0,0.,12.0,0.,12.0
1979-07-23 06:29:00.270 ,6,1,0.,12.0,0.,12.0,0.,12.0,0.,12.0
1979-07-23 06:29:12.270 ,6,0,0.,12.0,0.,12.0,0.,12.0,0.,12.0
1979-07-23 06:29:24.270 ,6,0,0.,12.0,0.,12.0,0.,12.0,0.,12.0
1979-07-23 06:29:36.270 ,7,1,0.,12.0,0.,12.0,0.,12.0,0.,12.0
1979-07-23 06:29:48.270 ,7,1,0.,12.0,0.,12.0,0.,12.0,0.,12.0
1979-07-23 06:30:00.270 ,7,0,0.,12.0,0.,12.0,0.,12.0,0.,12.0
1979-07-23 06:30:12.270 ,7,0,0.,12.0,0.,12.0,0.,12.0,0.,12.0
1979-07-23 06:30:24.270 ,7,1,0.,12.0,0.,12.0,0.,12.0,0.,12.0
1979-07-23 06:30:36.270 ,7,1,0.,12.0,0.,12.0,0.,12.0,0.,12.0
1979-07-23 06:30:48.270 ,7,0,0.,12.0,0.,12.0,0.,12.0,0.,12.0
1979-07-23 06:31:00.270 ,7,0,0.,12.0,0.,12.0,0.,12.0,0.,12.0
1979-07-23 06:31:12.270 ,6,1,0.,12.0,0.,12.0,0.,12.0,0.,12.0
1979-07-23 06:31:24.270 ,6,1,0.,12.0,0.,12.0,0.,12.0,0.,12.0
1979-07-23 06:31:36.270 ,6,0,0.,12.0,0.,12.0,0.,12.0,0.,12.0
1979-07-23 06:31:48.270 ,6,0,0.,12.0,0.,12.0,0.,12.0,0.,12.0
1979-07-23 06:32:00.270 ,5,1,0.,12.0,0.,12.0,0.,12.0,0.,12.0
1979-07-23 06:32:12.270 ,5,1,0.,12.0,0.,12.0,0.,12.0,0.,12.0
1979-07-23 06:32:24.270 ,5,0,0.,12.0,0.,12.0,0.,12.0,0.,12.0
1979-07-23 06:32:36.270 ,5,0,0.,12.0,0.,12.0,0.,12.0,0.,12.0
1979-07-23 06:32:48.270 ,4,1,0.,12.0,0.,12.0,0.,12.0,0.,12.0
1979-07-23 06:33:00.270 ,4,1,0.,12.0,0.,12.0,0.,12.0,0.,12.0
1979-07-23 06:33:12.270 ,4,0,0.,12.0,0.,12.0,0.,12.0,0.,12.0
1979-07-23 06:33:24.270 ,4,0,0.,12.0,0.,12.0,0.,12.0,0.,12.0
1979-07-23 06:33:36.270 ,3,1,0.,12.0,0.,12.0,0.,12.0,0.,12.0
1979-07-23 06:33:48.270 ,3,1,0.,12.0,0.,12.0,0.,12.0,0.,12.0
1979-07-23 06:34:00.270 ,3,0,0.,12.0,0.,12.0,0.,12.0,0.,12.0
1979-07-23 06:34:12.270 ,3,0,0.,12.0,0.,12.0,0.,12.0,0.,12.0
1979-07-23 06:34:24.270 ,2,1,0.,12.0,0.,12.0,0.,12.0,0.,12.0
1979-07-23 06:34:36.270 ,2,1,0.,12.0,0.,12.0,0.,12.0,0.,12.0
1979-07-23 06:34:48.270 ,2,0,0.,12.0,0.,12.0,0.,12.0,0.,12.0
1979-07-23 06:35:00.270 ,2,0,0.,12.0,0.,12.0,0.,12.0,0.,12.0
1979-07-23 06:35:12.270 ,1,1,0.,12.0,0.,12.0,0.,12.0,0.,12.0
1979-07-23 06:35:24.270 ,1,1,0.,12.0,0.,12.0,0.,12.0,0.,12.0
1979-07-23 06:35:36.270 ,1,0,0.,12.0,0.,12.0,0.,12.0,0.,12.0
1979-07-23 06:35:48.270 ,1,0,0.,12.0,0.,12.0,0.,12.0,0.,12.0
1979-07-23 06:36:00.270 ,0,1,0.,12.0,0.,12.0,0.,12.0,0.,12.0
1979-07-23 06:36:12.270 ,0,1,0.,12.0,0.,12.0,0.,12.0,0.,12.0
1979-07-23 06:36:24.270 ,0,0,0.,12.0,0.,12.0,0.,12.0,0.,12.0
1979-07-23 06:36:36.270 ,0,0,0.,12.0,0.,12.0,0.,12.0,0.,12.0
1979-07-23 06:36:48.270 ,0,1,0.,12.0,0.,12.0,0.,12.0,0.,12.0
1979-07-23 06:37:00.270 ,0,1,0.,12.0,0.,12.0,0.,12.0,0.,12.0
1979-07-23 06:37:12.270 ,0,0,0.,12.0,0.,12.0,0.,12.0,0.,12.0
1979-07-23 06:37:24.270 ,0,0,0.,12.0,0.,12.0,0.,12.0,0.,12.0
1979-07-23 06:37:36.270 ,1,1,0.,12.0,0.,12.0,0.,12.0,0.,12.0
1979-07-23 06:37:48.270 ,1,1,0.,12.0,0.,12.0,0.,12.0,0.,12.0
1979-07-23 06:38:00.270 ,1,0,0.,12.0,0.,12.0,0.,12.0,0.,12.0
1979-07-23 06:38:12.270 ,1,0,0.,12.0,0.,12.0,0.,12.0,0.,12.0
1979-07-23 06:38:24.270 ,2,1,0.,12.0,0.,12.0,0.,12.0,0.,12.0
1979-07-23 06:38:36.270 ,2,1,0.,12.0,0.,12.0,0.,12.0,1.,12.0
1979-07-23 06:38:48.270 ,2,0,0.,12.0,0.,12.0,0.,12.0,0.,12.0
1979-07-23 06:39:00.270 ,2,0,0.,12.0,0.,12.0,0.,12.0,0.,12.0
1979-07-23 06:39:12.270 ,3,1,0.,12.0,0.,12.0,0.,12.0,0.,12.0
1979-07-23 06:39:24.270 ,3,1,0.,12.0,0.,12.0,0.,12.0,0.,12.0
1979-07-23 06:39:36.270 ,3,0,0.,12.0,0.,12.0,0.,12.0,0.,12.0
1979-07-23 06:39:48.270 ,3,0,0.,12.0,0.,12.0,0.,12.0,0.,12.0
1979-07-23 06:40:00.270 ,4,1,0.,12.0,0.,12.0,0.,12.0,0.,12.0
1979-07-23 06:40:12.270 ,4,1,0.,12.0,0.,12.0,0.,12.0,0.,12.0
1979-07-23 06:40:24.270 ,4,0,0.,12.0,0.,12.0,0.,12.0,0.,12.0
1979-07-23 06:40:36.270 ,4,0,0.,12.0,0.,12.0,0.,12.0,0.,12.0
1979-07-23 06:40:48.270 ,5,1,0.,12.0,0.,12.0,0.,12.0,0.,12.0
1979-07-23 06:41:00.270 ,5,1,0.,12.0,0.,12.0,0.,12.0,0.,12.0
1979-07-23 06:41:12.270 ,5,0,0.,12.0,0.,12.0,0.,12.0,0.,12.0
1979-07-23 06:41:24.270 ,5,0,0.,12.0,0.,12.0,0.,12.0,0.,12.0
1979-07-23 06:41:36.270 ,6,1,0.,12.0,0.,12.0,0.,12.0,0.,12.0
1979-07-23 06:41:48.270 ,6,1,0.,12.0,0.,12.0,0.,12.0,0.,12.0
1979-07-23 06:42:00.270 ,6,0,0.,12.0,0.,12.0,0.,12.0,0.,12.0
1979-07-23 06:42:12.270 ,6,0,0.,12.0,0.,12.0,0.,12.0,0.,12.0
1979-07-23 06:42:24.270 ,7,0,0.,12.0,0.,12.0,0.,12.0,0.,12.0
1979-07-23 06:42:36.270 ,7,0,0.,12.0,0.,12.0,0.,12.0,0.,12.0
1979-07-23 06:42:48.270 ,0,0,0.,12.0,0.,12.0,0.,12.0,0.,12.0
1979-07-23 06:43:00.270 ,0,0,,0,,0,,0,,0
1979-07-23 06:42:57.270 ,7,0,,0,,0,,0,,0
1979-07-23 06:43:09.270 ,7,0,0.,12.0,0.,12.0,0.,12.0,0.,12.0
1979-07-23 06:43:12.270 ,4,1,0.,12.0,0.,12.0,0.,12.0,0.,12.0
1979-07-23 06:43:24.270 ,4,1,0.,12.0,0.,12.0,0.,12.0,0.,12.0
1979-07-23 06:43:36.270 ,0,1,0.,12.0,0.,12.0,0.,12.0,0.,12.0
1979-07-23 06:43:48.270 ,0,1,0.,12.0,0.,12.0,0.,12.0,0.,12.0
1979-07-23 06:44:00.270 ,3,1,0.,12.0,0.,12.0,0.,12.0,0.,12.0
1979-07-23 06:44:12.270 ,3,1,0.,12.0,0.,12.0,0.,12.0,1.,12.0
1979-07-23 06:44:24.270 ,7,1,0.,12.0,0.,12.0,0.,12.0,0.,12.0
1979-07-23 06:44:36.270 ,7,1,0.,12.0,0.,12.0,0.,12.0,0.,12.0
1979-07-23 06:44:48.270 ,4,1,0.,12.0,0.,12.0,0.,12.0,0.,12.0
1979-07-23 06:45:00.270 ,4,1,0.,12.0,0.,12.0,0.,12.0,0.,12.0
1979-07-23 06:45:12.270 ,0,1,0.,12.0,0.,12.0,0.,12.0,0.,12.0
1979-07-23 06:45:24.270 ,0,1,0.,12.0,0.,12.0,0.,12.0,0.,12.0
1979-07-23 06:45:36.270 ,3,1,0.,12.0,0.,12.0,0.,12.0,0.,12.0
1979-07-23 06:45:48.270 ,3,1,0.,12.0,0.,12.0,0.,12.0,0.,12.0
1979-07-23 06:46:00.270 ,7,1,0.,12.0,0.,12.0,0.,12.0,0.,12.0
1979-07-23 06:46:12.270 ,7,1,0.,12.0,0.,12.0,0.,12.0,0.,12.0
1979-07-23 06:46:24.270 ,4,1,0.,12.0,0.,12.0,0.,12.0,0.,12.0
1979-07-23 06:46:36.270 ,4,1,0.,12.0,0.,12.0,0.,12.0,0.,12.0
1979-07-23 06:46:48.270 ,0,1,0.,12.0,0.,12.0,0.,12.0,0.,12.0
1979-07-23 06:47:00.270 ,0,1,0.,12.0,0.,12.0,0.,12.0,0.,12.0
1979-07-23 06:47:12.270 ,3,1,0.,12.0,0.,12.0,0.,12.0,0.,12.0
1979-07-23 06:47:24.270 ,3,1,0.,12.0,0.,12.0,0.,12.0,0.,12.0
1979-07-23 06:47:36.270 ,7,1,0.,12.0,0.,12.0,0.,12.0,0.,12.0
1979-07-23 06:47:48.270 ,7,1,0.,12.0,0.,12.0,0.,12.0,0.,12.0
1979-07-23 06:48:00.270 ,4,1,0.,12.0,0.,12.0,0.,12.0,0.,12.0
1979-07-23 06:48:12.270 ,4,1,0.,12.0,0.,12.0,0.,12.0,0.,12.0
1979-07-23 06:48:24.270 ,0,1,0.,12.0,0.,12.0,0.,12.0,0.,12.0
1979-07-23 06:48:36.270 ,0,1,0.,12.0,0.,12.0,0.,12.0,0.,12.0
1979-07-23 06:48:48.270 ,3,1,0.,12.0,0.,12.0,0.,12.0,0.,12.0
1979-07-23 06:49:00.270 ,3,1,0.,12.0,0.,12.0,0.,12.0,0.,12.0
1979-07-23 06:49:12.270 ,7,1,0.,12.0,0.,12.0,0.,12.0,0.,12.0
1979-07-23 06:49:24.270 ,7,1,0.,12.0,0.,12.0,0.,12.0,0.,12.0
1979-07-23 06:49:36.270 ,4,1,0.,12.0,0.,12.0,0.,12.0,0.,12.0
1979-07-23 06:49:48.270 ,4,1,0.,12.0,0.,12.0,0.,12.0,1.,12.0
1979-07-23 06:50:00.270 ,0,1,0.,12.0,0.,12.0,0.,12.0,0.,12.0
1979-07-23 06:50:12.270 ,0,1,0.,12.0,0.,12.0,0.,12.0,0.,12.0
1979-07-23 06:50:24.270 ,3,1,0.,12.0,0.,12.0,0.,12.0,0.,12.0
1979-07-23 06:50:36.270 ,3,1,0.,12.0,0.,12.0,0.,12.0,0.,12.0
1979-07-23 06:50:48.270 ,7,1,0.,12.0,0.,12.0,0.,12.0,0.,12.0
1979-07-23 06:51:00.270 ,7,1,0.,12.0,0.,12.0,0.,12.0,0.,12.0
1979-07-23 06:51:12.270 ,4,1,0.,12.0,0.,12.0,0.,12.0,0.,12.0
1979-07-23 06:51:24.270 ,4,1,0.,12.0,0.,12.0,0.,12.0,0.,12.0
1979-07-23 06:51:36.270 ,0,1,0.,12.0,0.,12.0,0.,12.0,0.,12.0
1979-07-23 06:51:48.270 ,0,1,0.,12.0,0.,12.0,0.,12.0,0.,12.0
1979-07-23 06:52:00.270 ,3,1,0.,12.0,0.,12.0,0.,12.0,0.,12.0
1979-07-23 06:52:12.270 ,3,1,0.,12.0,0.,12.0,0.,12.0,0.,12.0
1979-07-23 06:52:24.270 ,7,1,0.,12.0,0.,12.0,0.,12.0,0.,12.0
1979-07-23 06:52:36.270 ,7,1,0.,12.0,0.,12.0,0.,12.0,0.,12.0
1979-07-23 06:52:48.270 ,4,1,0.,12.0,0.,12.0,0.,12.0,0.,12.0
1979-07-23 06:53:00.270 ,4,1,0.,12.0,0.,12.0,0.,12.0,0.,12.0
1979-07-23 06:53:12.270 ,0,1,0.,12.0,0.,12.0,0.,12.0,0.,12.0
1979-07-23 06:53:24.270 ,0,1,0.,12.0,0.,12.0,0.,12.0,0.,12.0
1979-07-23 06:53:36.270 ,0,0,0.,12.0,0.,12.0,0.,12.0,0.,12.0
1979-07-23 06:53:48.270 ,0,0,0.,12.0,0.,12.0,0.,12.0,0.,12.0
1979-07-23 06:54:00.270 ,0,0,0.,12.0,0.,12.0,0.,12.0,0.,12.0
1979-07-23 06:54:12.270 ,0,0,0.,12.0,0.,12.0,0.,12.0,0.,12.0
1979-07-23 06:54:24.270 ,5,1,0.,12.0,0.,12.0,0.,12.0,0.,12.0
1979-07-23 06:54:36.270 ,5,1,0.,12.0,0.,12.0,0.,12.0,0.,12.0
1979-07-23 06:54:48.270 ,5,0,0.,12.0,0.,12.0,0.,12.0,0.,12.0
1979-07-23 06:55:00.270 ,5,0,0.,12.0,0.,12.0,0.,12.0,0.,12.0
1979-07-23 06:55:12.270 ,4,1,0.,12.0,0.,12.0,0.,12.0,0.,12.0
1979-07-23 06:55:24.270 ,4,1,0.,12.0,0.,12.0,0.,12.0,0.,12.0
1979-07-23 06:55:36.270 ,4,0,0.,12.0,0.,12.0,0.,12.0,0.,12.0
1979-07-23 06:55:48.270 ,4,0,0.,12.0,0.,12.0,0.,12.0,0.,12.0
1979-07-23 06:56:00.270 ,3,1,0.,12.0,0.,12.0,0.,12.0,0.,12.0
1979-07-23 06:56:12.270 ,3,1,0.,12.0,0.,12.0,0.,12.0,0.,12.0
1979-07-23 06:56:24.270 ,3,0,0.,12.0,0.,12.0,0.,12.0,0.,12.0
1979-07-23 06:56:36.270 ,3,0,1.,12.0,0.,12.0,0.,12.0,0.,12.0
1979-07-23 06:56:48.270 ,2,1,0.,12.0,0.,12.0,0.,12.0,0.,12.0
1979-07-23 06:57:00.270 ,2,1,0.,12.0,0.,12.0,0.,12.0,0.,12.0
1979-07-23 06:57:12.270 ,2,0,0.,12.0,0.,12.0,0.,12.0,0.,12.0
1979-07-23 06:57:24.270 ,2,0,0.,12.0,0.,12.0,0.,12.0,0.,12.0
1979-07-23 06:57:36.270 ,1,1,0.,12.0,0.,12.0,0.,12.0,0.,12.0
1979-07-23 06:57:48.270 ,1,1,0.,12.0,0.,12.0,0.,12.0,0.,12.0
1979-07-23 06:58:00.270 ,1,0,0.,12.0,0.,12.0,0.,12.0,0.,12.0
1979-07-23 06:58:12.270 ,1,0,0.,12.0,0.,12.0,0.,12.0,0.,12.0
1979-07-23 06:58:24.270 ,0,1,0.,12.0,0.,12.0,0.,12.0,0.,12.0
1979-07-23 06:58:36.270 ,0,1,0.,12.0,0.,12.0,0.,12.0,0.,12.0
1979-07-23 06:58:48.270 ,0,0,0.,12.0,0.,12.0,0.,12.0,0.,12.0
1979-07-23 06:59:00.270 ,0,0,0.,12.0,0.,12.0,0.,12.0,0.,12.0
1979-07-23 06:59:12.270 ,0,1,0.,12.0,0.,12.0,0.,12.0,0.,12.0
1979-07-23 06:59:24.270 ,0,1,0.,12.0,0.,12.0,0.,12.0,0.,12.0
1979-07-23 06:59:36.270 ,0,0,0.,12.0,0.,12.0,0.,12.0,0.,12.0
1979-07-23 06:59:48.270 ,0,0,0.,12.0,0.,12.0,0.,12.0,0.,12.0
1979-07-23 07:00:00.270 ,1,1,0.,12.0,0.,12.0,0.,12.0,0.,12.0
1979-07-23 07:00:12.270 ,1,1,0.,12.0,0.,12.0,0.,12.0,0.,12.0
1979-07-23 07:00:24.270 ,1,0,0.,12.0,0.,12.0,0.,12.0,0.,12.0
1979-07-23 07:00:36.270 ,1,0,0.,12.0,0.,12.0,0.,12.0,0.,12.0
1979-07-23 07:00:48.270 ,2,1,0.,12.0,0.,12.0,0.,12.0,0.,12.0
1979-07-23 07:01:00.270 ,2,1,0.,12.0,0.,12.0,0.,12.0,0.,12.0
1979-07-23 07:01:12.270 ,2,0,0.,12.0,0.,12.0,0.,12.0,0.,12.0
1979-07-23 07:01:24.270 ,2,0,0.,12.0,0.,12.0,0.,12.0,0.,12.0
1979-07-23 07:01:36.270 ,3,1,0.,12.0,0.,12.0,0.,12.0,0.,12.0
1979-07-23 07:01:48.270 ,3,1,0.,12.0,0.,12.0,0.,12.0,0.,12.0
1979-07-23 07:02:00.270 ,3,0,0.,12.0,0.,12.0,0.,12.0,0.,12.0
1979-07-23 07:02:12.270 ,3,0,0.,12.0,0.,12.0,0.,12.0,0.,12.0
1979-07-23 07:02:24.270 ,4,1,0.,12.0,0.,12.0,0.,12.0,0.,12.0
1979-07-23 07:02:36.270 ,4,1,0.,12.0,0.,12.0,0.,12.0,0.,12.0
1979-07-23 07:02:48.270 ,4,0,0.,12.0,0.,12.0,0.,12.0,0.,12.0
1979-07-23 07:03:00.270 ,4,0,0.,12.0,0.,12.0,0.,12.0,0.,12.0
1979-07-23 07:03:12.270 ,5,1,0.,12.0,0.,12.0,0.,12.0,0.,12.0
1979-07-23 07:03:24.270 ,5,1,0.,12.0,0.,12.0,0.,12.0,0.,12.0
1979-07-23 07:03:36.270 ,5,0,0.,12.0,0.,12.0,0.,12.0,0.,12.0
1979-07-23 07:03:48.270 ,5,0,0.,12.0,0.,12.0,0.,12.0,0.,12.0
1979-07-23 07:04:00.270 ,6,1,0.,12.0,0.,12.0,0.,12.0,0.,12.0
1979-07-23 07:04:12.270 ,6,1,0.,12.0,0.,12.0,0.,12.0,0.,12.0
1979-07-23 07:04:24.270 ,6,0,0.,12.0,0.,12.0,0.,12.0,0.,12.0
1979-07-23 07:04:36.270 ,6,0,0.,12.0,0.,12.0,0.,12.0,0.,12.0
1979-07-23 07:04:48.270 ,7,1,0.,12.0,0.,12.0,0.,12.0,0.,12.0
1979-07-23 07:05:00.270 ,7,1,0.,12.0,0.,12.0,0.,12.0,0.,12.0
1979-07-23 07:05:12.270 ,7,0,0.,12.0,0.,12.0,0.,12.0,0.,12.0
1979-07-23 07:05:24.270 ,7,0,0.,12.0,0.,12.0,0.,12.0,0.,12.0
1979-07-23 07:05:36.270 ,7,1,0.,12.0,0.,12.0,0.,12.0,0.,12.0
1979-07-23 07:05:48.270 ,7,1,0.,12.0,0.,12.0,0.,12.0,0.,12.0
1979-07-23 07:06:00.270 ,7,0,0.,12.0,0.,12.0,0.,12.0,0.,12.0
1979-07-23 07:06:12.270 ,7,0,0.,12.0,0.,12.0,0.,12.0,0.,12.0
1979-07-23 07:06:24.270 ,6,1,0.,12.0,0.,12.0,0.,12.0,0.,12.0
1979-07-23 07:06:36.270 ,6,1,0.,12.0,0.,12.0,0.,12.0,0.,12.0
1979-07-23 07:06:48.270 ,6,0,0.,12.0,0.,12.0,0.,12.0,0.,12.0
1979-07-23 07:07:00.270 ,6,0,0.,12.0,0.,12.0,0.,12.0,0.,12.0
1979-07-23 07:07:12.270 ,5,1,0.,12.0,0.,12.0,0.,12.0,0.,12.0
1979-07-23 07:07:24.270 ,5,1,0.,12.0,0.,12.0,0.,12.0,0.,12.0
1979-07-23 07:07:36.270 ,5,0,0.,12.0,0.,12.0,0.,12.0,0.,12.0
1979-07-23 07:07:48.270 ,5,0,0.,12.0,0.,12.0,0.,12.0,0.,12.0
1979-07-23 07:08:00.270 ,4,1,0.,12.0,0.,12.0,0.,12.0,0.,12.0
1979-07-23 07:08:12.270 ,4,1,0.,12.0,0.,12.0,0.,12.0,0.,12.0
1979-07-23 07:08:24.270 ,4,0,0.,12.0,0.,12.0,0.,12.0,0.,12.0
1979-07-23 07:08:36.270 ,4,0,0.,12.0,0.,12.0,0.,12.0,0.,12.0
1979-07-23 07:08:48.270 ,3,1,0.,12.0,0.,12.0,0.,12.0,0.,12.0
1979-07-23 07:09:00.270 ,3,1,0.,12.0,0.,12.0,0.,12.0,0.,12.0
1979-07-23 07:09:12.270 ,3,0,0.,12.0,0.,12.0,0.,12.0,0.,12.0
1979-07-23 07:09:24.270 ,3,0,0.,12.0,0.,12.0,0.,12.0,0.,12.0
1979-07-23 07:09:36.270 ,2,1,0.,12.0,0.,12.0,0.,12.0,0.,12.0
1979-07-23 07:09:48.270 ,2,1,0.,12.0,0.,12.0,0.,12.0,0.,12.0
1979-07-23 07:10:00.270 ,2,0,0.,12.0,0.,12.0,0.,12.0,0.,12.0
1979-07-23 07:10:12.270 ,2,0,0.,12.0,0.,12.0,0.,12.0,0.,12.0
1979-07-23 07:10:24.270 ,1,1,0.,12.0,0.,12.0,0.,12.0,0.,12.0
1979-07-23 07:10:36.270 ,1,1,0.,12.0,0.,12.0,0.,12.0,0.,12.0
1979-07-23 07:10:48.270 ,1,0,0.,12.0,0.,12.0,0.,12.0,0.,12.0
1979-07-23 07:11:00.270 ,1,0,0.,12.0,0.,12.0,0.,12.0,0.,12.0
1979-07-23 07:11:12.270 ,0,1,1.,12.0,0.,12.0,0.,12.0,0.,12.0
1979-07-23 07:11:24.270 ,0,1,0.,12.0,0.,12.0,0.,12.0,0.,12.0
1979-07-23 07:11:36.270 ,0,0,0.,12.0,0.,12.0,0.,12.0,0.,12.0
1979-07-23 07:11:48.270 ,0,0,0.,12.0,0.,12.0,0.,12.0,0.,12.0
1979-07-23 07:12:00.270 ,0,1,0.,12.0,0.,12.0,0.,12.0,0.,12.0
1979-07-23 07:12:12.270 ,0,1,0.,12.0,0.,12.0,0.,12.0,0.,12.0
1979-07-23 07:12:24.270 ,0,0,0.,12.0,0.,12.0,0.,12.0,0.,12.0
1979-07-23 07:12:36.270 ,0,0,0.,12.0,0.,12.0,0.,12.0,0.,12.0
1979-07-23 07:12:48.270 ,1,1,0.,12.0,0.,12.0,0.,12.0,0.,12.0
1979-07-23 07:13:00.270 ,1,1,0.,12.0,0.,12.0,0.,12.0,0.,12.0
1979-07-23 07:13:12.270 ,1,0,0.,12.0,0.,12.0,0.,12.0,0.,12.0
1979-07-23 07:13:24.270 ,1,0,0.,12.0,0.,12.0,0.,12.0,0.,12.0
1979-07-23 07:13:36.270 ,2,1,0.,12.0,0.,12.0,0.,12.0,0.,12.0
1979-07-23 07:13:48.270 ,2,1,0.,12.0,0.,12.0,0.,12.0,0.,12.0
1979-07-23 07:14:00.270 ,2,0,0.,12.0,0.,12.0,0.,12.0,0.,12.0
1979-07-23 07:14:12.270 ,2,0,0.,12.0,0.,12.0,0.,12.0,0.,12.0
1979-07-23 07:14:24.270 ,3,1,0.,12.0,0.,12.0,0.,12.0,0.,12.0
1979-07-23 07:14:36.270 ,3,1,0.,12.0,0.,12.0,0.,12.0,0.,12.0
1979-07-23 07:14:48.270 ,3,0,0.,12.0,0.,12.0,0.,12.0,0.,12.0
1979-07-23 07:15:00.270 ,3,0,0.,12.0,0.,12.0,0.,12.0,0.,12.0
1979-07-23 07:15:12.270 ,4,1,0.,12.0,0.,12.0,0.,12.0,0.,12.0
1979-07-23 07:15:24.270 ,4,1,0.,12.0,0.,12.0,0.,12.0,0.,12.0
1979-07-23 07:15:36.270 ,4,0,0.,12.0,0.,12.0,0.,12.0,0.,12.0
1979-07-23 07:15:48.270 ,4,0,0.,12.0,0.,12.0,0.,12.0,0.,12.0
1979-07-23 07:16:00.270 ,5,1,0.,12.0,0.,12.0,0.,12.0,0.,12.0
1979-07-23 07:16:12.270 ,5,1,0.,12.0,0.,12.0,0.,12.0,0.,12.0
1979-07-23 07:16:24.270 ,5,0,0.,12.0,0.,12.0,0.,12.0,0.,12.0
1979-07-23 07:16:36.270 ,5,0,0.,12.0,0.,12.0,0.,12.0,0.,12.0
1979-07-23 07:16:48.270 ,6,1,0.,12.0,0.,12.0,0.,12.0,0.,12.0
1979-07-23 07:17:00.270 ,6,1,0.,12.0,0.,12.0,0.,12.0,0.,12.0